Pellston, MI

7:01 AM EDT on May 27, 2017 (GMT -0400)
Pellston Regional Airport Of Emmet County

Weather History for KPLN - January, 2013

Change the Weather History Date:

Friday, January 4, 2013

  Actual Average Record
Temperature  
Mean Temperature 31 °F -  
Max Temperature 34 °F 27 °F 48 °F (2007)
Min Temperature 28 °F 12 °F -35 °F (1981)
Degree Days  
Heating Degree Days 34    
Moisture  
Dew Point 22 °F    
Average Humidity 72    
Maximum Humidity 80    
Minimum Humidity 61    
Precipitation  
Precipitation 0.00 in - - ()
Sea Level Pressure  
Sea Level Pressure 29.88 in    
Wind  
Wind Speed 17 mph (West)    
Max Wind Speed 28 mph    
Max Gust Speed 41 mph    
Visibility 9 miles    
Events      
Averages and records for this station are not official NWS values.
T = Trace of Precipitation, MM = Missing Value Source: NWS Daily Summary

Daily Weather History Graph

Daily Weather History Graph

Search for Another Location

Airport or City:

Trip Planner

Search our weather history database for the weather conditions in past years. The results will help you decide how hot, cold, wet, or windy it might be!

Date:

Astronomy

Jan. 04, 2013 Rise Set
Actual Time 8:19 AM EST 5:09 PM EST
Civil Twilight 7:45 AM EST 5:43 PM EST
Nautical Twilight 7:08 AM EST 6:20 PM EST
Astronomical Twilight 6:32 AM EST 6:56 PM EST
Moon 12:04 AM EST (1/4) 11:38 AM EST (1/4)
Length of Visible Light 9h 57m
Length of Day
8h 50m
Waning Gibbous, 55% of the Moon is Illuminated
Jan 4
Waning Gibbous
Jan 4
Last Quarter
Jan 11
New
Jan 18
First Quarter
Jan 26
Full

Hourly Weather History & Observations

Time (EST) Temp. Windchill Dew Point Humidity Pressure Visibility Wind Dir Wind Speed Gust Speed Precip Events Conditions
12:54 AM 28.9 °F 17.7 °F 21.0 °F 72% 29.89 in 8.0 mi WSW 15.0 mph 29.9 mph N/A   Overcast
1:44 AM 28.4 °F 17.5 °F 21.2 °F 74% 29.81 in 9.0 mi WSW 13.8 mph 27.6 mph N/A   Scattered Clouds
1:54 AM 28.0 °F 14.6 °F 19.9 °F 72% 29.82 in 8.0 mi SW 20.7 mph 29.9 mph N/A   Partly Cloudy
2:54 AM 28.9 °F 16.1 °F 21.0 °F 72% 29.83 in 9.0 mi WSW 19.6 mph 36.8 mph N/A   Partly Cloudy
3:09 AM 28.4 °F 15.1 °F 21.2 °F 74% 29.81 in 9.0 mi WSW 20.7 mph 28.8 mph N/A   Mostly Cloudy
3:54 AM 30.0 °F 16.6 °F 23.0 °F 75% 29.81 in 8.0 mi WSW 23.0 mph 41.4 mph N/A   Mostly Cloudy
4:04 AM 30.2 °F 17.8 °F 23.0 °F 75% 29.78 in 6.0 mi WSW 19.6 mph 36.8 mph N/A   Haze
4:13 AM 30.2 °F 16.2 °F 23.0 °F 75% 29.79 in 8.0 mi WSW 25.3 mph 36.8 mph N/A   Mostly Cloudy
4:54 AM 30.0 °F 15.4 °F 21.9 °F 72% 29.81 in 6.0 mi West 27.6 mph 36.8 mph N/A   Haze
5:54 AM 28.9 °F 15.1 °F 19.9 °F 69% 29.83 in 9.0 mi West 23.0 mph 32.2 mph N/A   Mostly Cloudy
8:54 AM 28.0 °F 17.0 °F 19.9 °F 72% 29.86 in 10.0 mi West 13.8 mph 19.6 mph N/A   Overcast
9:54 AM 28.0 °F 18.6 °F 19.9 °F 72% 29.87 in 10.0 mi West 10.4 mph 20.7 mph N/A   Overcast
10:54 AM 28.9 °F 18.6 °F 19.9 °F 69% 29.88 in 10.0 mi West 12.7 mph 18.4 mph N/A   Overcast
11:54 AM 28.9 °F 20.4 °F 21.0 °F 72% 29.87 in 10.0 mi WSW 9.2 mph - N/A   Overcast
12:54 PM 28.9 °F 17.7 °F 21.9 °F 75% 29.86 in 10.0 mi West 15.0 mph 26.5 mph N/A   Overcast
1:12 PM 28.4 °F 17.0 °F 21.2 °F 74% 29.82 in 10.0 mi WSW 15.0 mph 25.3 mph N/A   Overcast
1:54 PM 28.0 °F 16.1 °F 21.9 °F 78% 29.85 in 10.0 mi WSW 16.1 mph 28.8 mph N/A   Overcast
2:54 PM 28.9 °F 17.7 °F 23.0 °F 78% 29.86 in 10.0 mi WSW 15.0 mph 31.1 mph N/A   Overcast
3:54 PM 28.9 °F 18.2 °F 23.0 °F 78% 29.87 in 10.0 mi WSW 13.8 mph 29.9 mph N/A   Overcast
4:54 PM 30.9 °F 20.2 °F 24.1 °F 76% 29.89 in 10.0 mi West 15.0 mph 23.0 mph N/A   Overcast
5:30 PM 30.2 °F 20.8 °F 24.8 °F 80% 29.87 in 10.0 mi West 11.5 mph 24.2 mph N/A   Scattered Clouds
6:54 PM 32.0 °F 24.8 °F 24.1 °F 73% 29.95 in 10.0 mi West 8.1 mph 16.1 mph N/A   Clear
7:54 PM 34.0 °F 23.4 °F 23.0 °F 64% 29.99 in 10.0 mi NW 17.3 mph 24.2 mph N/A   Overcast
8:54 PM 34.0 °F 25.0 °F 21.9 °F 61% 30.01 in 10.0 mi WNW 12.7 mph 21.9 mph N/A   Overcast
9:54 PM 33.1 °F 20.3 °F 24.1 °F 70% 30.03 in 10.0 mi NW 24.2 mph 28.8 mph N/A   Overcast
10:54 PM 30.9 °F 19.8 °F 19.9 °F 64% 30.07 in 10.0 mi NW 16.1 mph 29.9 mph N/A   Overcast
11:54 PM 30.9 °F 20.2 °F 19.0 °F 61% 30.10 in 10.0 mi NW 15.0 mph - N/A   Overcast